Miscellaneous Local Product
Issued by NWS North Platte, NE

Home | Current Version | Previous Version | Text Only | Print | Product List | Glossary On
Versions: 1 2 3 4 5 6 7 8 9 10 11 12 13 14 15 16 17 18 19 20 21 22 23 24 25 26 27 28 29 30 31 32 33 34 35 36 37 38 39 40 41 42 43 44 45 46 47 48 49 50
062
AXUS43 KLBF 192210
MISLBF


WESTERN AND NORTH CENTRAL NEBRASKA HOURLY WEATHER ROUNDUP
NATIONAL WEATHER SERVICE NORTH PLATTE NE
500 PM CDT THU APR 19 2018

NOTE: "FAIR" INDICATES FEW OR NO CLOUDS BELOW 12,000 FEET WITH NO
SIGNIFICANT WEATHER AND/OR OBSTRUCTIONS TO VISIBILITY.

NOTE: STATIONS NOT REPORTING VARIABLES SUCH AS SKY/WEATHER OR
PRESSURE ARE PROVIDED BY RAWS AND APRS NETWORKS AND ARE NOT UNDER
NATIONAL WEATHER SERVICE QUALITY CONTROL.

...OBSERVATIONS IN AND NEAR THE EASTERN PANHANDLE OF NEBRASKA...

CITY           SKY/WX    TMP DP  RH WIND       PRES   REMARKS
PINE RIDGE     MOSUNNY   60  29  30 SE15G22   30.18F
GORDON         FAIR      58  29  32 SE16G26   30.20F
CHADRON        MOSUNNY   61  31  32 SE24G32   30.15F
ALLIANCE       MOSUNNY   57  31  37 SE28G36   30.16F
SIDNEY         SUNNY     62  27  26 SE30G38   30.15F
CRESCENT LAKE    N/A     58  28  31 S16G26      N/A
$$

...OBSERVATIONS IN NORTHERN NEBRASKA AND FAR SOUTHERN SOUTH DAKOTA...

CITY           SKY/WX    TMP DP  RH WIND       PRES   REMARKS
WINNER         FAIR      47  30  51 SE14      30.35F
VALENTINE      PTSUNNY   56  28  34 SE16      30.29F
AINSWORTH      CLOUDY    53  29  39 SE12      30.31F
O`NEILL        PTSUNNY   52  22  31 E12       30.38F
THEDFORD       MOSUNNY   57  29  35 SE14G20   30.28F
BROKEN BOW     PTSUNNY   55  28  35 E15       30.31F
ORD            CLOUDY    54  21  27 SE10      30.34F
ALBION         SUNNY     55  24  30 E9        30.37F
VALENTINE NWR    N/A     54  28  37 SE13        N/A
HALSEY           N/A     56  26  31 E9          N/A
BUTTE            N/A     45  32  61 E9          N/A
CHAMBERS         N/A     58  31  36 E6          N/A
EWING            N/A     50  32  50 E7          N/A
$$

...OBSERVATIONS IN SOUTHWEST NEBRASKA AND FAR NORTHEAST COLORADO...

CITY           SKY/WX    TMP DP  RH WIND       PRES   REMARKS
WRAY           FAIR      64  27  24 S18G35    30.19F
HOLYOKE        FAIR      64  27  24 S22G32    30.19F
IMPERIAL       MOSUNNY   62  28  27 SE22G33   30.23F
OGALLALA       MOSUNNY   61  28  28 SE21      30.23F
NORTH PLATTE   MOSUNNY   59  29  31 SE16G25   30.27F
MCCOOK         MOSUNNY   59  27  29 SE15G23   30.27F
LEXINGTON      MOSUNNY   57  27  30 SE9G17    30.31F
STAPLETON        N/A     55  30  38 SE3G12      N/A
GOTHENBURG       N/A     55  27  34 SE10        N/A
CALLAWAY         N/A     56  34  43 SE14        N/A
$$

...OBSERVATIONS IN CENTRAL LINCOLN COUNTY AREA...

CITY           SKY/WX    TMP DP  RH WIND       PRES   REMARKS
N.P. AIRPORT   MOSUNNY   59  29  31 SE16G25   30.27F
N.P. DOWNTOWN    N/A     58  32  38 E6G14       N/A
N.P. SOUTHEAST   N/A     57  31  38 E12         N/A
N.P. HILLCREST   N/A     56  29  36 E15G25      N/A
$$

...OBSERVATIONS ACROSS THE ROCKIES AND WESTERN HIGH PLAINS...

CITY           SKY/WX    TMP DP  RH WIND       PRES   REMARKS
RAPID CITY     PTSUNNY   58  32  37 E15G30    30.18F
SCOTTSBLUFF    PTSUNNY   62  30  29 SE24G39   30.10F
CHEYENNE       PTSUNNY   58  18  21 S22G40    30.07F
DENVER         PTSUNNY   67  15  13 S26G38    30.01F
BERTHOUD PASS  FAIR      28  18  64 S9G24     30.21F WCI  20
MONARCH PASS   CLOUDY    41   9  26 S14G25    30.31F
ASPEN          CLOUDY    62   3   9 S15G25    29.94F
STEAMBOAT      FAIR      63   6  10 S13G20    29.90F
LARAMIE        PTSUNNY   52  15  23 SE39G46   30.01F
CASPER         MOSUNNY   64  21  19 E16       29.95F
$$

...OBSERVATIONS ACROSS THE NORTHERN PLAINS...

CITY           SKY/WX    TMP DP  RH WIND       PRES   REMARKS
BISMARCK       MOSUNNY   55  34  45 VRB7      30.33F
FARGO          FAIR      56  31  38 W8        30.39F
PIERRE         MOSUNNY   49  31  49 SE17      30.33F
SIOUX FALLS    PTSUNNY   45  22  40 SE7       30.44F
$$

...OBSERVATIONS ACROSS THE CENTRAL AND SOUTHERN PLAINS...

CITY           SKY/WX    TMP DP  RH WIND       PRES   REMARKS
OMAHA          MOSUNNY   58  27  30 VRB5      30.39F
GRAND ISLAND   SUNNY     56  27  32 SE7       30.36F
KANSAS CITY    MOSUNNY   58  29  33 E10       30.39F
WICHITA        MOSUNNY   61  28  28 NE9       30.34F
DODGE CITY     SUNNY     63  26  24 SE13G23   30.29F
OKLAHOMA CITY  MOSUNNY   65  28  24 NE9       30.30F
DALLAS         MOSUNNY   69  31  24 NE12G22   30.27F
AMARILLO       SUNNY     68  19  15 SE22G30   30.23F
$$




USA.gov is the U.S. government's official web portal to all federal, state and local government web resources and services.